ZHONGXING-11

Last updated on Tue Sep 22 2026 00:03:12 GMT+0000 (Coordinated Universal Time)

1 39157U 13020A 26264.67433616 -.00000294 00000+0 00000+0 0 9991 2 39157 0.0380 322.8551 0001092 157.5116 220.8647 1.00270319 48860
UTC large
Height (km)
Speed (km/s)
/
Latitude / Longitude
Inclination (degrees)
Orbital Period (minutes)
Azimuth
Elevation
Range (km)
Doppler Factor

Next 0 passes for location: London (51.5072 / 0.1276)

No passes found over London.
ZHONGXING-11